Temp
-16 -16 -17 -18 -18 -18 -19 -20 -20 -19 -20 -21 -21 -20 -20 -20 -20 -19 -18 -17 -16 -15 -14 -14 -13 -12 -9 -7 -5 -4 -3 -3 -3 -3 -2 -1 -1 -1 -1 -0 -0 -0 -0 0
-16 -17 -18 -18 -19 -19 -19 -20 -20 -21 -21 -21 -21 -21 -20 -20 -20 -20 -19 -18 -17 -16 -15 -14 -14 -12 -10 -8 -7 -5 -4 -4 -4 -3 -2 -1 -1 -2 -1 -0 -0 -0 -0 0
-16 -17 -17 -18 -18 -20 -20 -20 -20 -21 -21 -21 -21 -21 -20 -20 -20 -20 -19 -18 -18 -17 -16 -15 -14 -13 -11 -10 -9 -7 -5 -4 -4 -4 -2 -2 -2 -1 -2 -1 -1 -0 -0 -0
-17 -17 -17 -19 -19 -20 -20 -20 -20 -21 -21 -21 -21 -22 -21 -21 -21 -20 -19 -19 -18 -18 -17 -16 -15 -14 -13 -11 -10 -9 -8 -6 -4 -4 -4 -3 -2 -2 -2 -1 -1 -1 -1 -1
-16 -16 -18 -20 -19 -21 -20 -21 -21 -21 -21 -21 -21 -21 -22 -21 -20 -20 -20 -19 -19 -19 -18 -17 -16 -15 -14 -12 -11 -10 -9 -8 -7 -4 -4 -3 -3 -3 -3 -2 -2 -3 -1 -2
-17 -16 -16 -21 -19 -20 -20 -22 -20 -21 -21 -20 -20 -20 -21 -21 -20 -20 -20 -20 -19 -19 -18 -18 -16 -15 -14 -13 -12 -11 -10 -9 -8 -7 -5 -4 -4 -3 -3 -2 -2 -2 -2 -2
-17 -16 -20 -20 -20 -20 -21 -21 -20 -21 -21 -21 -21 -21 -21 -21 -21 -21 -20 -19 -19 -19 -18 -18 -17 -16 -15 -14 -13 -11 -11 -10 -9 -9 -7 -7 -4 -4 -4 -3 -3 -3 -3 -2
-18 -18 -19 -20 -21 -21 -21 -21 -21 -21 -21 -21 -21 -21 -21 -21 -21 -20 -20 -20 -19 -19 -18 -18 -17 -17 -16 -15 -14 -13 -12 -11 -11 -10 -9 -8 -7 -6 -5 -4 -4 -4 -3 -3
-20 -21 -21 -21 -21 -21 -21 -21 -21 -21 -21 -21 -21 -21 -21 -21 -21 -20 -20 -20 -20 -19 -19 -18 -18 -17 -17 -16 -15 -14 -13 -12 -12 -11 -10 -9 -9 -8 -7 -6 -5 -4 -3 -3
-21 -22 -22 -22 -22 -22 -21 -21 -21 -21 -21 -21 -21 -21 -21 -20 -20 -20 -20 -20 -20 -19 -19 -18 -18 -17 -17 -17 -16 -15 -15 -14 -13 -12 -11 -10 -10 -9 -8 -8 -7 -6 -5 -4
-22 -22 -23 -22 -22 -22 -22 -22 -22 -22 -22 -22 -21 -21 -21 -21 -20 -20 -20 -20 -19 -19 -19 -19 -18 -18 -17 -17 -17 -16 -15 -15 -14 -13 -12 -11 -11 -10 -9 -9 -8 -8 -7 -6
-24 -23 -23 -23 -23 -23 -23 -23 -22 -22 -22 -22 -22 -22 -21 -21 -21 -20 -20 -20 -20 -20 -19 -19 -19 -18 -18 -17 -17 -16 -16 -15 -15 -14 -14 -13 -12 -11 -11 -10 -9 -9 -8 -8
-24 -24 -24 -23 -24 -23 -23 -23 -23 -23 -23 -22 -22 -22 -22 -21 -21 -21 -20 -20 -20 -20 -19 -19 -19 -19 -18 -18 -18 -17 -17 -16 -16 -15 -15 -14 -13 -13 -12 -12 -11 -10 -9 -8
-25 -24 -24 -24 -24 -24 -24 -24 -23 -23 -23 -23 -23 -23 -22 -22 -22 -21 -21 -21 -20 -20 -20 -19 -19 -19 -18 -19 -18 -18 -18 -17 -16 -16 -15 -15 -14 -13 -13 -13 -12 -11 -10 -10
-25 -25 -25 -25 -25 -24 -24 -24 -24 -24 -23 -23 -23 -23 -23 -22 -22 -22 -21 -21 -21 -20 -20 -19 -19 -19 -19 -18 -18 -18 -17 -17 -17 -17 -16 -16 -15 -14 -14 -13 -13 -12 -12 -11
-26 -25 -25 -25 -25 -25 -24 -24 -24 -24 -24 -24 -23 -23 -23 -23 -22 -22 -22 -22 -21 -21 -20 -20 -20 -19 -19 -19 -18 -18 -18 -17 -17 -17 -16 -16 -17 -16 -15 -15 -14 -14 -13 -13
-26 -26 -26 -25 -25 -25 -25 -24 -24 -24 -24 -24 -24 -24 -23 -23 -23 -22 -22 -22 -22 -21 -21 -21 -20 -20 -20 -19 -19 -18 -18 -18 -17 -17 -17 -16 -16 -16 -16 -15 -16 -15 -15 -15
-26 -26 -26 -25 -25 -25 -25 -25 -24 -24 -24 -24 -24 -24 -24 -23 -23 -23 -23 -23 -22 -22 -22 -21 -21 -21 -20 -20 -20 -19 -19 -18 -18 -17 -17 -17 -16 -16 -16 -15 -15 -14 -14 -14
-26 -26 -26 -26 -25 -25 -25 -25 -25 -25 -24 -24 -24 -24 -24 -24 -24 -23 -23 -23 -23 -23 -22 -22 -22 -22 -21 -21 -20 -20 -20 -19 -19 -18 -18 -17 -17 -17 -16 -16 -15 -15 -15 -15
-27 -26 -26 -26 -26 -26 -26 -25 -25 -25 -25 -25 -25 -25 -24 -24 -24 -24 -24 -23 -23 -23 -23 -23 -22 -22 -22 -22 -21 -21 -21 -20 -20 -19 -19 -18 -18 -17 -17 -17 -16 -16 -15 -15
-27 -27 -26 -26 -26 -26 -26 -26 -26 -26 -26 -25 -25 -25 -25 -25 -25 -24 -24 -24 -23 -23 -23 -23 -23 -22 -22 -22 -22 -22 -21 -21 -21 -20 -20 -19 -19 -18 -18 -18 -17 -17 -17 -16
-27 -27 -27 -27 -26 -26 -26 -26 -26 -26 -26 -26 -26 -25 -25 -25 -25 -25 -25 -24 -24 -24 -24 -24 -23 -23 -22 -22 -22 -22 -22 -21 -21 -21 -21 -20 -20 -20 -19 -19 -19 -18 -18 -17
-27 -27 -27 -27 -27 -27 -27 -26 -26 -26 -26 -26 -26 -26 -26 -26 -25 -25 -25 -25 -24 -24 -24 -24 -24 -24 -23 -23 -22 -22 -22 -22 -21 -21 -21 -21 -20 -20 -20 -19 -19 -19 -19 -18
-27 -27 -27 -27 -27 -27 -27 -27 -27 -27 -27 -26 -26 -26 -26 -26 -26 -26 -25 -25 -25 -25 -25 -24 -24 -24 -24 -23 -23 -23 -23 -22 -22 -22 -21 -21 -21 -21 -21 -20 -20 -20 -20 -19
-27 -27 -27 -27 -27 -27 -27 -27 -27 -27 -27 -27 -27 -26 -26 -26 -26 -26 -26 -26 -26 -25 -25 -25 -25 -24 -24 -24 -23 -23 -23 -23 -22 -22 -22 -22 -22 -22 -21 -21 -21 -21 -20 -20
-28 -28 -28 -28 -27 -27 -27 -27 -27 -27 -27 -27 -27 -27 -26 -26 -26 -26 -26 -26 -26 -26 -25 -25 -25 -25 -24 -24 -24 -23 -23 -23 -23 -23 -22 -22 -22 -22 -22 -22 -21 -21 -21 -21
-28 -28 -28 -28 -28 -28 -27 -27 -27 -27 -27 -27 -27 -27 -27 -27 -27 -26 -26 -26 -26 -26 -26 -25 -25 -25 -25 -25 -24 -24 -24 -23 -23 -23 -23 -23 -23 -23 -23 -22 -22 -22 -22 -22
Height
3003 3002 3002 3001 3001 3000 2999 2997 2996 2991 2987 2984 2979 2975 2971 2967 2963 2957 2953 2947 2944 2940 2937 2934 2931 2929 2930 2931 2935 2940 2947 2954 2962 2970 2979 2985 2992 2998 3005 3012 3019 3026 3032 3038
2999 2999 2999 2999 2997 2996 2995 2993 2991 2989 2986 2982 2978 2973 2969 2966 2961 2956 2951 2947 2943 2940 2937 2933 2932 2926 2924 2928 2929 2933 2939 2946 2954 2961 2969 2977 2983 2991 2997 3004 3011 3018 3024 3029
2996 2994 2996 2997 2994 2992 2991 2990 2989 2987 2984 2979 2975 2971 2967 2964 2960 2956 2951 2945 2941 2937 2934 2933 2928 2925 2925 2927 2927 2928 2932 2938 2946 2953 2960 2968 2975 2981 2989 2995 3002 3008 3014 3020
2993 2992 2992 2990 2988 2989 2988 2987 2986 2984 2981 2977 2973 2970 2967 2964 2960 2956 2951 2948 2944 2941 2938 2934 2930 2927 2925 2924 2926 2927 2928 2931 2937 2944 2952 2958 2965 2973 2980 2986 2992 2999 3005 3011
2987 2986 2987 2986 2985 2987 2986 2986 2984 2982 2979 2976 2973 2970 2967 2964 2959 2955 2951 2947 2944 2941 2938 2935 2931 2928 2926 2925 2925 2926 2927 2928 2931 2936 2943 2951 2957 2964 2969 2976 2983 2989 2995 2999
2983 2982 2979 2983 2983 2983 2984 2985 2982 2980 2977 2975 2972 2969 2967 2963 2959 2955 2952 2948 2945 2941 2937 2934 2931 2928 2926 2926 2927 2927 2927 2927 2929 2931 2935 2941 2948 2955 2960 2968 2974 2978 2984 2990
2979 2978 2979 2980 2981 2982 2985 2987 2980 2979 2976 2974 2972 2969 2965 2962 2959 2955 2952 2948 2945 2942 2939 2935 2932 2929 2928 2926 2926 2925 2925 2926 2927 2930 2932 2934 2938 2944 2952 2958 2963 2969 2974 2979
2977 2976 2978 2979 2981 2983 2982 2980 2979 2977 2975 2973 2971 2968 2965 2962 2959 2956 2953 2950 2948 2943 2940 2937 2934 2932 2929 2928 2926 2925 2925 2926 2927 2929 2931 2932 2934 2936 2941 2947 2954 2957 2963 2969
2978 2976 2976 2977 2978 2979 2979 2978 2977 2976 2974 2973 2970 2968 2965 2962 2959 2957 2953 2951 2947 2944 2942 2940 2937 2934 2931 2929 2928 2927 2927 2927 2928 2929 2930 2931 2934 2935 2936 2939 2943 2948 2953 2959
2976 2976 2976 2977 2977 2977 2978 2977 2976 2974 2973 2971 2970 2968 2965 2962 2959 2956 2953 2951 2949 2946 2944 2941 2939 2936 2934 2932 2931 2931 2930 2929 2929 2929 2930 2931 2933 2935 2935 2937 2939 2944 2946 2951
2975 2975 2976 2976 2976 2977 2976 2975 2974 2973 2971 2970 2968 2966 2964 2962 2959 2956 2954 2951 2949 2947 2945 2943 2942 2939 2937 2935 2933 2932 2931 2930 2930 2930 2931 2931 2933 2934 2935 2937 2939 2941 2945 2947
2973 2975 2975 2976 2975 2975 2974 2973 2972 2971 2969 2968 2967 2965 2964 2961 2959 2957 2955 2952 2950 2948 2946 2944 2943 2940 2938 2937 2935 2935 2934 2933 2933 2932 2932 2932 2932 2933 2935 2936 2937 2939 2942 2945
2973 2973 2974 2974 2974 2973 2972 2971 2970 2969 2967 2966 2965 2964 2962 2961 2959 2957 2955 2954 2951 2949 2947 2945 2944 2942 2941 2939 2937 2937 2936 2935 2935 2934 2933 2932 2933 2934 2934 2935 2935 2937 2940 2943
2972 2972 2973 2972 2972 2971 2970 2969 2968 2967 2966 2964 2963 2962 2961 2960 2959 2957 2956 2954 2952 2950 2948 2947 2945 2944 2943 2942 2940 2938 2938 2937 2936 2935 2933 2933 2933 2933 2933 2934 2934 2936 2937 2938
2971 2971 2971 2971 2970 2970 2969 2968 2966 2965 2964 2963 2961 2960 2959 2958 2957 2957 2955 2954 2952 2951 2949 2947 2946 2944 2943 2942 2942 2940 2939 2938 2937 2936 2935 2934 2933 2933 2933 2933 2934 2935 2936 2937
2970 2970 2969 2969 2968 2968 2967 2966 2964 2963 2962 2961 2960 2958 2958 2957 2955 2955 2954 2953 2952 2950 2949 2947 2946 2945 2943 2942 2941 2940 2939 2939 2938 2937 2936 2936 2935 2934 2934 2934 2934 2934 2935 2935
2969 2968 2968 2967 2966 2965 2964 2963 2962 2961 2960 2959 2958 2956 2956 2955 2954 2952 2952 2951 2950 2948 2947 2946 2945 2943 2942 2941 2940 2939 2938 2937 2937 2937 2936 2935 2936 2936 2935 2935 2935 2935 2936 2937
2967 2966 2965 2965 2964 2963 2962 2961 2960 2959 2958 2957 2955 2954 2953 2952 2952 2950 2949 2948 2947 2946 2945 2944 2943 2942 2941 2940 2939 2937 2937 2936 2936 2935 2935 2935 2934 2934 2935 2935 2936 2936 2937 2938
2966 2964 2963 2962 2961 2960 2959 2958 2957 2956 2954 2954 2953 2951 2950 2950 2948 2947 2947 2946 2945 2943 2942 2941 2941 2940 2939 2938 2937 2936 2935 2934 2933 2933 2933 2933 2933 2933 2933 2934 2934 2935 2935 2937
2964 2962 2961 2960 2958 2957 2956 2955 2954 2952 2951 2950 2949 2948 2947 2946 2945 2944 2943 2942 2941 2940 2939 2938 2937 2937 2937 2936 2935 2934 2934 2933 2932 2931 2930 2930 2930 2931 2931 2932 2932 2933 2933 2934
2962 2960 2959 2957 2956 2954 2953 2951 2950 2949 2948 2947 2946 2944 2943 2942 2941 2940 2940 2938 2937 2937 2936 2935 2934 2933 2934 2932 2932 2932 2931 2931 2930 2929 2928 2928 2927 2928 2928 2928 2928 2929 2930 2931
2960 2958 2956 2954 2953 2951 2950 2948 2947 2946 2944 2943 2942 2941 2940 2938 2937 2936 2935 2935 2934 2932 2931 2931 2930 2929 2930 2929 2929 2928 2928 2928 2927 2927 2927 2926 2925 2924 2924 2924 2925 2925 2925 2925
2957 2955 2953 2951 2950 2948 2946 2945 2943 2942 2941 2939 2937 2936 2935 2934 2932 2931 2931 2929 2929 2928 2927 2927 2926 2925 2925 2925 2925 2924 2924 2924 2924 2924 2923 2923 2923 2922 2922 2921 2921 2921 2921 2921
2954 2952 2950 2948 2946 2945 2943 2941 2939 2938 2936 2935 2933 2931 2930 2929 2928 2925 2925 2924 2923 2923 2922 2922 2921 2920 2920 2920 2920 2920 2920 2920 2920 2920 2920 2920 2920 2919 2919 2918 2918 2918 2918 2918
2951 2949 2947 2945 2943 2941 2939 2937 2935 2933 2931 2930 2928 2926 2925 2924 2922 2921 2919 2918 2917 2916 2916 2916 2915 2915 2915 2915 2915 2915 2915 2915 2916 2916 2916 2916 2916 2916 2916 2915 2914 2914 2914 2914
2948 2946 2944 2941 2939 2937 2935 2932 2930 2928 2926 2925 2924 2921 2920 2918 2916 2915 2914 2912 2911 2910 2910 2910 2909 2909 2909 2909 2909 2910 2910 2910 2910 2911 2911 2911 2912 2912 2912 2911 2911 2911 2911 2911
2946 2943 2940 2938 2935 2933 2931 2928 2926 2924 2922 2920 2919 2917 2915 2913 2911 2908 2907 2906 2905 2904 2903 2903 2903 2903 2903 2903 2903 2904 2904 2905 2906 2906 2907 2907 2908 2908 2908 2908 2909 2908 2908 2908
Wind_Speed
19 12 13 13 13 12 11 12 7 15 16 20 22 20 18 21 20 18 16 10 11 10 8 5 2 4 15 26 32 43 47 44 48 50 47 49 45 47 51 49 51 46 42 40
12 14 11 9 12 11 10 10 10 13 11 16 19 17 16 18 19 18 15 14 10 11 9 7 5 4 8 17 24 34 36 39 39 48 53 50 49 44 48 49 48 47 44 42
19 11 7 11 17 13 10 10 8 8 15 18 17 15 13 16 18 17 15 16 14 12 12 11 9 7 3 6 11 21 31 36 37 36 42 52 52 44 39 51 51 49 47 45
18 8 8 8 9 9 9 10 10 11 14 15 16 11 11 17 17 15 14 14 14 13 13 12 11 8 5 1 4 7 15 28 37 40 37 37 50 55 53 49 49 50 49 46
15 15 5 7 11 8 6 10 9 11 11 12 12 8 14 14 14 15 16 15 16 16 15 14 12 10 7 3 1 3 6 11 21 35 38 42 35 36 42 49 49 47 44 43
10 11 6 6 6 4 4 6 7 11 11 12 11 8 12 13 14 14 15 15 14 15 15 13 12 11 9 5 1 1 3 6 9 15 30 39 41 43 36 43 45 46 39 45
17 13 4 4 5 3 1 4 8 9 11 11 12 13 15 15 14 15 15 14 14 14 14 14 13 12 10 8 4 1 1 3 4 7 12 19 36 43 42 44 42 44 45 49
7 4 3 7 6 5 6 6 8 9 10 11 12 12 14 14 14 13 13 12 12 12 12 13 13 12 11 9 6 4 1 0 2 4 6 9 16 24 33 42 48 49 45 42
4 4 5 7 6 5 4 6 8 10 10 11 11 12 13 13 12 12 12 12 13 12 12 12 12 12 11 10 8 5 4 2 1 3 5 7 9 13 17 26 32 40 43 38
4 5 6 5 4 3 5 7 9 10 12 12 11 11 12 12 12 12 12 11 11 11 10 11 11 11 12 11 10 8 6 4 2 1 4 7 8 9 13 17 20 26 33 38
3 7 5 5 5 6 7 9 10 10 12 12 12 11 11 11 11 12 12 12 12 11 11 11 11 10 10 10 10 8 8 6 4 3 1 4 7 10 12 13 16 18 22 27
8 6 7 6 7 7 8 10 11 11 12 11 11 11 11 10 10 10 11 11 12 12 13 13 12 12 11 10 10 9 8 6 4 4 2 1 3 5 9 11 14 14 16 19
4 5 6 7 6 7 8 9 10 10 11 12 11 10 10 10 10 10 10 9 10 10 10 11 11 13 13 13 12 11 10 8 6 5 3 2 2 3 4 7 9 12 14 16
4 5 6 7 7 7 7 8 8 9 10 11 11 10 10 9 9 9 9 9 9 9 9 9 9 9 9 10 11 11 12 12 10 9 6 4 2 3 4 5 6 9 12 13
5 6 7 7 7 7 7 7 8 9 9 9 9 9 10 10 9 9 9 9 9 8 8 9 9 9 9 9 8 7 7 8 9 10 10 9 8 6 2 3 4 5 6 8
6 6 7 7 7 7 7 8 8 9 10 10 9 9 9 10 10 10 9 9 9 9 9 9 9 9 9 9 9 9 8 7 6 6 6 7 9 9 8 7 6 4 3 2
7 8 8 8 8 9 9 10 10 10 10 11 11 11 11 10 10 11 11 10 9 10 9 9 10 10 9 10 9 10 9 8 8 7 6 5 5 4 5 6 8 9 8 7
8 9 10 10 10 10 11 11 12 12 12 12 12 12 12 13 12 12 12 12 12 11 11 10 9 10 10 10 10 10 10 10 9 9 8 7 7 7 6 6 5 5 5 6
9 9 10 11 11 11 10 11 11 12 13 12 12 13 13 13 14 14 14 13 14 14 14 13 10 9 11 10 10 10 10 10 10 10 10 10 9 9 8 8 8 9 8 9
9 10 10 11 11 12 12 11 11 12 12 12 13 13 14 14 13 14 15 15 14 14 14 15 15 12 9 12 10 10 10 9 9 10 10 10 10 10 10 10 10 11 11 12
10 10 11 12 12 12 12 12 12 12 12 12 12 13 14 14 14 14 14 15 16 15 15 15 15 16 11 13 12 11 10 9 9 9 9 10 10 11 11 12 12 13 13 14
12 12 12 13 13 14 14 14 14 14 15 15 15 15 15 15 15 15 15 14 15 16 16 16 16 17 14 13 13 13 12 11 10 10 9 9 9 10 10 11 11 12 13 14
12 12 12 13 14 14 15 15 15 16 16 16 17 17 17 17 18 18 17 18 16 16 16 16 17 17 17 15 14 14 13 13 12 11 11 10 10 9 10 10 11 12 12 13
14 14 14 14 14 14 14 15 15 15 15 15 16 17 17 16 16 18 18 17 18 18 18 17 17 18 18 16 15 14 14 13 13 13 12 12 11 10 10 10 10 10 11 12
13 14 14 14 15 15 16 16 16 17 17 16 16 17 17 17 16 16 18 18 18 18 18 18 19 19 18 18 17 16 15 14 14 13 13 12 11 11 10 9 9 10 10 10
15 15 15 16 16 16 16 17 17 16 17 16 15 17 18 19 20 20 20 19 19 19 19 19 19 19 19 19 18 17 17 16 15 14 13 12 12 11 10 9 9 9 9 9
14 14 14 14 15 15 15 15 16 15 16 17 17 17 17 18 19 21 21 20 20 20 20 20 20 20 19 19 19 18 17 17 16 15 13 13 12 11 10 9 8 8 8 7
Wind_Direction
268 269 271 266 271 272 286 281 269 291 302 296 314 316 326 336 339 341 335 343 334 336 337 338 318 178 206 204 203 212 217 218 217 213 210 216 222 221 222 224 225 226 227 228
270 245 240 261 277 267 283 280 293 296 310 300 318 318 315 327 340 343 344 351 357 352 355 357 7 66 185 211 203 200 210 218 217 217 213 212 220 222 221 222 223 223 224 228
264 231 225 260 242 258 260 272 300 314 309 323 334 333 329 335 344 343 353 353 3 3 4 358 9 42 94 196 207 201 199 209 216 221 219 215 214 216 221 220 220 223 225 229
259 193 233 226 235 239 261 279 281 314 321 329 337 349 349 342 338 346 357 3 4 13 12 9 11 17 39 88 206 208 202 200 205 213 218 223 220 218 218 221 225 226 225 227
237 228 221 271 266 227 268 270 288 319 329 335 338 341 335 337 343 353 357 4 5 7 9 8 9 8 24 39 140 224 216 206 203 200 208 211 209 219 225 226 226 232 223 224
212 251 259 193 218 253 267 235 281 322 333 341 344 343 341 351 354 358 358 359 5 8 5 4 11 10 11 17 41 169 211 196 210 213 205 206 215 211 219 211 216 217 221 228
237 237 192 204 220 217 215 251 294 315 327 339 346 344 347 352 352 353 357 359 2 2 5 7 12 14 11 14 357 30 113 150 169 211 221 209 202 207 213 217 214 218 229 234
243 260 195 235 211 212 244 271 294 312 323 330 337 338 339 343 348 352 356 359 358 4 8 11 11 12 17 11 17 12 11 31 135 181 201 221 217 204 205 210 225 234 224 231
225 211 184 173 199 206 241 278 294 306 315 321 329 333 336 341 346 351 354 360 3 5 10 9 11 14 21 27 21 12 4 350 253 188 192 197 213 210 202 208 217 217 213 223
150 180 170 182 210 253 274 282 289 296 305 314 321 330 334 338 343 349 353 358 4 7 8 9 13 16 21 28 23 20 18 19 16 248 204 200 201 207 203 202 203 210 210 213
222 191 201 235 262 276 284 288 291 293 298 305 313 320 329 336 339 344 349 355 360 6 13 17 18 19 23 26 29 17 23 18 19 12 246 215 208 208 205 202 203 202 210 211
224 220 237 265 282 289 291 290 291 293 296 301 308 313 319 327 333 336 339 344 350 355 2 4 9 16 23 28 34 31 28 29 26 36 44 231 218 208 214 210 211 205 206 208
223 245 265 282 297 301 299 296 291 291 292 300 306 311 314 321 325 328 332 336 346 350 349 353 358 2 6 12 20 25 31 36 40 44 67 107 158 186 205 204 212 220 221 226
252 269 281 296 304 303 301 300 299 297 297 299 306 309 311 315 319 320 324 330 337 342 342 343 348 352 357 359 1 8 10 16 24 29 35 54 113 166 173 198 205 212 219 221
275 284 292 299 301 299 297 299 300 299 298 297 301 308 310 313 317 319 321 322 323 326 328 337 347 347 346 347 347 354 352 354 359 6 13 21 31 28 60 130 152 178 184 199
289 292 293 294 297 298 297 298 298 297 297 298 300 301 304 306 310 312 313 314 316 321 326 328 329 335 336 337 334 335 337 336 333 337 350 357 3 10 16 13 12 32 51 69
289 289 289 291 291 292 292 292 291 291 291 293 296 298 299 299 301 305 308 308 311 311 313 315 316 320 327 327 325 319 317 316 314 314 308 309 315 327 339 347 350 354 354 352
294 291 291 291 290 289 289 289 289 288 287 286 286 288 290 292 294 297 301 305 307 306 307 307 308 309 313 314 316 314 309 302 299 297 295 292 287 287 290 290 289 292 295 295
300 300 299 300 298 296 293 291 290 288 287 286 285 285 285 285 287 289 291 294 296 300 302 304 306 306 304 304 306 309 309 302 295 289 285 284 283 278 275 275 277 278 279 281
304 302 301 300 301 301 300 298 295 294 292 290 289 287 286 286 285 284 285 285 286 289 291 294 297 297 294 296 298 297 299 301 299 292 285 281 277 276 274 272 270 272 274 277
308 304 303 302 301 301 300 300 299 298 297 296 293 292 292 291 289 286 284 284 284 282 282 283 284 287 289 284 286 288 289 289 292 295 294 288 281 275 273 274 274 273 271 269
309 307 304 302 299 298 297 296 296 296 296 295 293 292 290 290 290 289 286 282 281 282 281 281 282 283 283 280 281 279 280 281 282 283 285 288 290 286 281 278 276 275 275 275
311 308 305 303 301 299 297 297 295 294 294 293 293 292 291 289 289 287 285 286 282 278 277 276 277 278 280 279 277 276 276 278 278 277 278 281 285 287 285 281 280 278 277 276
315 313 311 309 306 303 300 299 299 297 296 294 293 292 292 291 290 289 288 284 281 279 278 276 275 276 277 277 276 274 272 272 272 273 275 277 281 285 287 285 281 278 276 274
312 310 308 306 305 304 302 300 299 298 297 296 294 292 292 293 291 287 286 287 287 284 281 277 274 271 271 270 271 272 272 270 269 269 270 271 273 277 281 283 284 283 280 277
315 314 311 308 306 304 303 301 301 300 298 297 297 295 298 298 296 294 289 285 282 280 280 278 276 273 269 267 265 265 266 268 268 269 269 269 269 272 277 280 280 278 276 275
327 326 323 320 316 314 312 308 307 305 300 298 296 296 296 296 296 293 291 288 285 281 278 277 274 272 269 266 263 260 259 260 261 262 263 263 262 263 266 269 272 272 272 273